Time,TemperatureF,DewpointF,PressureIn,WindDirection,WindDirectionDegrees,WindSpeedMPH,WindSpeedGustMPH,Humidity,HourlyPrecipIn,Conditions,Clouds,dailyrainin,SoftwareType,DateUTC
2013-04-25 00:11:00,58.6,52.0,29.81,NW,314,0.0,5.0,78,0.00,,,0.00,weatherlink.com 1.10,2013-04-25 04:11:00,
2013-04-25 00:26:00,59.4,53.0,29.83,NW,312,6.0,11.0,80,0.00,,,0.00,weatherlink.com 1.10,2013-04-25 04:26:00,
2013-04-25 00:41:00,55.1,52.0,29.85,WNW,301,12.0,23.0,88,0.05,,,0.05,weatherlink.com 1.10,2013-04-25 04:41:00,
2013-04-25 00:56:00,54.8,50.0,29.87,WNW,298,15.0,21.0,83,0.05,,,0.05,weatherlink.com 1.10,2013-04-25 04:56:00,
2013-04-25 01:11:00,54.3,48.0,29.88,WNW,298,14.0,26.0,79,0.05,,,0.05,weatherlink.com 1.10,2013-04-25 05:11:00,
2013-04-25 01:26:00,54.0,47.0,29.89,NW,319,12.0,20.0,76,0.05,,,0.05,weatherlink.com 1.10,2013-04-25 05:26:00,
2013-04-25 01:41:00,51.9,44.0,29.91,NW,319,12.0,19.0,74,0.00,,,0.05,weatherlink.com 1.10,2013-04-25 05:41:00,
2013-04-25 01:56:00,49.7,41.0,29.93,WNW,298,12.0,24.0,71,0.00,,,0.05,weatherlink.com 1.10,2013-04-25 05:56:00,
2013-04-25 02:11:00,48.1,39.0,29.93,NNW,338,9.0,30.0,71,0.00,,,0.05,weatherlink.com 1.10,2013-04-25 06:11:00,
2013-04-25 02:26:00,46.9,38.0,29.93,NW,325,9.0,28.0,71,0.00,,,0.05,weatherlink.com 1.10,2013-04-25 06:26:00,
2013-04-25 02:41:00,46.3,36.0,29.94,ENE,72,3.0,27.0,68,0.00,,,0.05,weatherlink.com 1.10,2013-04-25 06:41:00,
2013-04-25 02:56:00,45.6,36.0,29.96,WNW,292,11.0,26.0,70,0.00,,,0.05,weatherlink.com 1.10,2013-04-25 06:56:00,
2013-04-25 03:11:00,44.5,34.0,29.96,NW,304,16.0,30.0,66,0.00,,,0.05,weatherlink.com 1.10,2013-04-25 07:11:00,
2013-04-25 03:26:00,43.9,34.0,29.97,NW,316,16.0,28.0,67,0.00,,,0.05,weatherlink.com 1.10,2013-04-25 07:26:00,
2013-04-25 03:41:00,43.4,33.0,29.98,WNW,294,12.0,26.0,66,0.00,,,0.05,weatherlink.com 1.10,2013-04-25 07:41:00,
2013-04-25 03:56:00,43.0,32.0,30.00,NW,309,9.0,25.0,66,0.00,,,0.05,weatherlink.com 1.10,2013-04-25 07:56:00,
2013-04-25 04:11:00,42.8,31.0,30.01,West,263,14.0,23.0,64,0.00,,,0.05,weatherlink.com 1.10,2013-04-25 08:11:00,
2013-04-25 04:27:00,42.5,31.0,30.03,WNW,283,8.0,18.0,65,0.00,,,0.05,weatherlink.com 1.10,2013-04-25 08:27:00,
2013-04-25 04:42:00,42.1,31.0,30.03,NW,316,8.0,23.0,65,0.00,,,0.05,weatherlink.com 1.10,2013-04-25 08:42:00,
2013-04-25 04:57:00,41.9,31.0,30.04,NW,316,5.0,24.0,66,0.00,,,0.05,weatherlink.com 1.10,2013-04-25 08:57:00,
2013-04-25 05:12:00,41.9,31.0,30.06,NW,318,5.0,28.0,66,0.00,,,0.05,weatherlink.com 1.10,2013-04-25 09:12:00,
2013-04-25 05:27:00,41.8,32.0,30.07,SSW,201,7.0,17.0,67,0.00,,,0.05,weatherlink.com 1.10,2013-04-25 09:27:00,
2013-04-25 05:42:00,41.7,31.0,30.08,NW,307,10.0,18.0,66,0.00,,,0.05,weatherlink.com 1.10,2013-04-25 09:42:00,
2013-04-25 05:57:00,41.5,31.0,30.09,WNW,298,7.0,11.0,67,0.00,,,0.05,weatherlink.com 1.10,2013-04-25 09:57:00,
2013-04-25 06:12:00,41.3,32.0,30.09,NNW,338,7.0,15.0,69,0.00,,,0.05,weatherlink.com 1.10,2013-04-25 10:12:00,
2013-04-25 06:27:00,40.9,31.0,30.10,NNE,14,4.0,17.0,69,0.00,,,0.05,weatherlink.com 1.10,2013-04-25 10:27:00,
2013-04-25 06:42:00,40.9,31.0,30.11,WNW,301,6.0,22.0,68,0.00,,,0.05,weatherlink.com 1.10,2013-04-25 10:42:00,
2013-04-25 06:57:00,40.6,30.0,30.12,West,278,10.0,21.0,67,0.00,,,0.05,weatherlink.com 1.10,2013-04-25 10:57:00,
2013-04-25 07:12:00,40.1,29.0,30.12,WNW,303,12.0,22.0,66,0.00,,,0.05,weatherlink.com 1.10,2013-04-25 11:12:00,
2013-04-25 07:27:00,39.9,29.0,30.13,WNW,302,15.0,27.0,64,0.00,,,0.05,weatherlink.com 1.10,2013-04-25 11:27:00,
2013-04-25 07:42:00,40.4,29.0,30.14,WNW,297,4.0,17.0,63,0.00,,,0.05,weatherlink.com 1.10,2013-04-25 11:42:00,
2013-04-25 07:57:00,40.7,28.0,30.14,NW,314,10.0,19.0,60,0.00,,,0.05,weatherlink.com 1.10,2013-04-25 11:57:00,
2013-04-25 08:12:00,40.9,28.0,30.16,NNW,343,14.0,20.0,60,0.00,,,0.05,weatherlink.com 1.10,2013-04-25 12:12:00,
2013-04-25 08:27:00,41.3,29.0,30.16,WSW,256,2.0,20.0,61,0.00,,,0.05,weatherlink.com 1.10,2013-04-25 12:27:00,
2013-04-25 08:42:00,41.0,28.0,30.16,NNW,328,8.0,13.0,60,0.00,,,0.05,weatherlink.com 1.10,2013-04-25 12:42:00,
2013-04-25 08:57:00,41.0,27.0,30.17,NE,41,3.0,13.0,59,0.00,,,0.05,weatherlink.com 1.10,2013-04-25 12:57:00,
2013-04-25 09:12:00,41.1,28.0,30.18,West,273,4.0,17.0,59,0.00,,,0.05,weatherlink.com 1.10,2013-04-25 13:12:00,
2013-04-25 09:27:00,41.3,27.0,30.18,NNW,343,10.0,17.0,58,0.00,,,0.05,weatherlink.com 1.10,2013-04-25 13:27:00,
2013-04-25 09:42:00,41.5,27.0,30.18,WNW,303,12.0,16.0,56,0.00,,,0.05,weatherlink.com 1.10,2013-04-25 13:42:00,
2013-04-25 09:57:00,42.7,27.0,30.18,NW,326,4.0,15.0,55,0.00,,,0.05,weatherlink.com 1.10,2013-04-25 13:57:00,
2013-04-25 10:12:00,43.7,28.0,30.18,South,181,2.0,14.0,54,0.00,,,0.05,weatherlink.com 1.10,2013-04-25 14:12:00,
2013-04-25 10:27:00,44.9,28.0,30.18,West,271,2.0,15.0,51,0.00,,,0.05,weatherlink.com 1.10,2013-04-25 14:27:00,
2013-04-25 10:42:00,46.1,29.0,30.20,WNW,292,5.0,21.0,51,0.00,,,0.05,weatherlink.com 1.10,2013-04-25 14:42:00,
2013-04-25 11:12:00,48.0,28.0,30.19,SSW,208,5.0,14.0,47,0.00,,,0.05,weatherlink.com 1.10,2013-04-25 15:12:00,
2013-04-25 11:27:00,49.0,28.0,30.19,NW,307,10.0,14.0,45,0.00,,,0.05,weatherlink.com 1.10,2013-04-25 15:27:00,
2013-04-25 11:42:00,50.2,28.0,30.20,WNW,303,10.0,12.0,42,0.00,,,0.05,weatherlink.com 1.10,2013-04-25 15:42:00,
2013-04-25 11:57:00,50.4,28.0,30.20,NW,307,3.0,9.0,42,0.00,,,0.05,weatherlink.com 1.10,2013-04-25 15:57:00,
2013-04-25 12:12:00,51.7,27.0,30.19,West,277,3.0,11.0,39,0.00,,,0.05,weatherlink.com 1.10,2013-04-25 16:12:00,
2013-04-25 12:28:00,51.8,26.0,30.19,NNW,333,4.0,9.0,37,0.00,,,0.05,weatherlink.com 1.10,2013-04-25 16:28:00,
2013-04-25 12:58:00,53.4,24.0,30.18,WSW,255,3.0,8.0,32,0.00,,,0.05,weatherlink.com 1.10,2013-04-25 16:58:00,
2013-04-25 13:13:00,53.2,24.0,30.18,NW,307,0.0,14.0,32,0.00,,,0.05,weatherlink.com 1.10,2013-04-25 17:13:00,
2013-04-25 13:28:00,55.1,25.0,30.18,NNW,340,2.0,7.0,31,0.00,,,0.05,weatherlink.com 1.10,2013-04-25 17:28:00,
2013-04-25 13:43:00,54.5,23.0,30.18,East,79,2.0,9.0,30,0.00,,,0.05,weatherlink.com 1.10,2013-04-25 17:43:00,
2013-04-25 13:58:00,54.8,23.0,30.18,WSW,245,3.0,13.0,29,0.00,,,0.05,weatherlink.com 1.10,2013-04-25 17:58:00,
2013-04-25 14:13:00,55.4,27.0,30.18,West,278,3.0,15.0,33,0.00,,,0.05,weatherlink.com 1.10,2013-04-25 18:13:00,
2013-04-25 14:28:00,55.2,22.0,30.18,NW,314,7.0,14.0,28,0.00,,,0.05,weatherlink.com 1.10,2013-04-25 18:28:00,
2013-04-25 14:43:00,56.3,22.0,30.18,SW,228,2.0,10.0,26,0.00,,,0.05,weatherlink.com 1.10,2013-04-25 18:43:00,
2013-04-25 14:58:00,57.2,27.0,30.17,NNW,336,2.0,8.0,31,0.00,,,0.05,weatherlink.com 1.10,2013-04-25 18:58:00,
2013-04-25 15:13:00,57.4,23.0,30.17,WNW,303,2.0,7.0,27,0.00,,,0.05,weatherlink.com 1.10,2013-04-25 19:13:00,
2013-04-25 15:28:00,57.6,25.0,30.17,West,281,0.0,11.0,28,0.00,,,0.05,weatherlink.com 1.10,2013-04-25 19:28:00,
2013-04-25 15:43:00,58.1,25.0,30.17,NNW,336,1.0,6.0,28,0.00,,,0.05,weatherlink.com 1.10,2013-04-25 19:43:00,
2013-04-25 15:58:00,57.6,25.0,30.17,NW,305,6.0,8.0,28,0.00,,,0.05,weatherlink.com 1.10,2013-04-25 19:58:00,
2013-04-25 16:13:00,57.6,24.0,30.17,NW,311,5.0,8.0,27,0.00,,,0.05,weatherlink.com 1.10,2013-04-25 20:13:00,
2013-04-25 16:28:00,59.1,25.0,30.16,West,262,1.0,7.0,27,0.00,,,0.05,weatherlink.com 1.10,2013-04-25 20:28:00,
2013-04-25 16:43:00,58.6,21.0,30.17,NW,311,6.0,8.0,23,0.00,,,0.05,weatherlink.com 1.10,2013-04-25 20:43:00,
2013-04-25 16:58:00,59.2,21.0,30.17,South,169,1.0,4.0,23,0.00,,,0.05,weatherlink.com 1.10,2013-04-25 20:58:00,
2013-04-25 17:13:00,59.6,24.0,30.18,SE,146,0.0,6.0,26,0.00,,,0.05,weatherlink.com 1.10,2013-04-25 21:13:00,
2013-04-25 17:28:00,59.9,26.0,30.18,SE,130,2.0,5.0,27,0.00,,,0.05,weatherlink.com 1.10,2013-04-25 21:28:00,
2013-04-25 17:43:00,59.3,27.0,30.18,SE,146,0.0,6.0,29,0.00,,,0.05,weatherlink.com 1.10,2013-04-25 21:43:00,
2013-04-25 17:58:00,58.9,26.0,30.18,SSE,149,1.0,6.0,28,0.00,,,0.05,weatherlink.com 1.10,2013-04-25 21:58:00,
2013-04-25 18:13:00,59.0,26.0,30.19,SE,127,1.0,3.0,28,0.00,,,0.05,weatherlink.com 1.10,2013-04-25 22:13:00,
2013-04-25 18:28:00,58.7,27.0,30.19,ENE,72,3.0,5.0,30,0.00,,,0.05,weatherlink.com 1.10,2013-04-25 22:28:00,
2013-04-25 18:43:00,58.4,28.0,30.20,SE,139,1.0,3.0,31,0.00,,,0.05,weatherlink.com 1.10,2013-04-25 22:43:00,
2013-04-25 18:58:00,57.8,29.0,30.20,East,96,1.0,2.0,33,0.00,,,0.05,weatherlink.com 1.10,2013-04-25 22:58:00,
2013-04-25 19:13:00,56.9,29.0,30.20,SSE,156,0.0,0.0,35,0.00,,,0.05,weatherlink.com 1.10,2013-04-25 23:13:00,
2013-04-25 19:28:00,52.8,32.0,30.21,WSW,252,0.0,0.0,45,0.00,,,0.05,weatherlink.com 1.10,2013-04-25 23:28:00,
2013-04-25 19:43:00,49.4,33.0,30.21,NW,323,1.0,3.0,54,0.00,,,0.05,weatherlink.com 1.10,2013-04-25 23:43:00,
2013-04-25 19:58:00,46.9,33.0,30.22,WNW,301,0.0,3.0,59,0.00,,,0.05,weatherlink.com 1.10,2013-04-25 23:58:00,
2013-04-25 20:13:00,45.5,33.0,30.23,WNW,302,1.0,1.0,63,0.00,,,0.05,weatherlink.com 1.10,2013-04-26 00:13:00,
2013-04-25 20:28:00,44.2,34.0,30.24,WNW,302,0.0,0.0,68,0.00,,,0.05,weatherlink.com 1.10,2013-04-26 00:28:00,
2013-04-25 20:43:00,43.0,33.0,30.25,NW,304,0.0,0.0,68,0.00,,,0.05,weatherlink.com 1.10,2013-04-26 00:43:00,
2013-04-25 20:58:00,41.7,33.0,30.26,WNW,303,0.0,0.0,72,0.00,,,0.05,weatherlink.com 1.10,2013-04-26 00:58:00,
2013-04-25 21:13:00,40.4,33.0,30.27,WNW,303,0.0,0.0,74,0.00,,,0.05,weatherlink.com 1.10,2013-04-26 01:13:00,
2013-04-25 21:28:00,39.6,33.0,30.27,NW,304,0.0,0.0,78,0.00,,,0.05,weatherlink.com 1.10,2013-04-26 01:28:00,
2013-04-25 21:43:00,38.7,32.0,30.28,NW,304,0.0,0.0,78,0.00,,,0.05,weatherlink.com 1.10,2013-04-26 01:43:00,
2013-04-25 21:58:00,37.9,32.0,30.28,WNW,303,0.0,0.0,79,0.00,,,0.05,weatherlink.com 1.10,2013-04-26 01:58:00,
2013-04-25 22:13:00,37.4,32.0,30.28,WNW,303,0.0,0.0,80,0.00,,,0.05,weatherlink.com 1.10,2013-04-26 02:13:00,
2013-04-25 22:28:00,36.5,32.0,30.29,WNW,303,0.0,0.0,83,0.00,,,0.05,weatherlink.com 1.10,2013-04-26 02:28:00,
2013-04-25 22:43:00,36.0,32.0,30.29,WNW,303,0.0,0.0,84,0.00,,,0.05,weatherlink.com 1.10,2013-04-26 02:43:00,
2013-04-25 22:58:00,35.3,31.0,30.29,WNW,303,0.0,0.0,85,0.00,,,0.05,weatherlink.com 1.10,2013-04-26 02:58:00,
2013-04-25 23:13:00,35.0,31.0,30.30,WNW,303,0.0,0.0,85,0.00,,,0.05,weatherlink.com 1.10,2013-04-26 03:13:00,
2013-04-25 23:29:00,33.9,31.0,30.30,NW,304,0.0,0.0,87,0.00,,,0.05,weatherlink.com 1.10,2013-04-26 03:29:00,
2013-04-25 23:44:00,33.7,30.0,30.31,WNW,303,0.0,0.0,87,0.00,,,0.05,weatherlink.com 1.10,2013-04-26 03:44:00,
2013-04-25 23:59:00,33.2,30.0,30.31,WNW,303,0.0,0.0,88,0.00,,,0.05,weatherlink.com 1.10,2013-04-26 03:59:00,